Flag for Greece Weather past 2 weeks in Thessaloniki, Greece

63 °F

Passing clouds.

Feels Like: 63 °F
Forecast: 61 / 75 °F
Wind: 5 mph from East

Location: Thessaloniki Airport

Current Time: Oct 10, 2015 at 3:02:49 AM

Latest Report: Oct 10, 2015 at 2:20 AM

Visibility: N/A

Pressure: 30.07 "Hg

Humidity: 94%

Dew point: 61 °F

Location of ThessalonikiLocation

Historic Weather in Thessaloniki — Graph


Thessaloniki temperature yesterday

Maximum temperature yesterday: 72 °F (at 1:20 PM)
Minimum temperature yesterday: 63 °F (at 1:50 AM)
Average temperature yesterday: 66 °F

Past Weeks' High & Low Weather Summary

High79 °F (Sep 25, 2:50 PM)94% (Sep 26, 9:20 AM)30.33 "Hg (Sep 26, 9:20 AM)
Low54 °F (Oct 3, 3:20 AM)39% (Oct 6, 3:50 PM)29.77 "Hg (Oct 6, 4:50 PM)
Average66 °F77%30.04 "Hg
* Reported Sep 25 1:20 AM — Oct 10 1:50 AM, Thessaloniki, Weather by CustomWeather, © 2015

Note: Actual official high and low records may vary slightly from our data, if they occured in-between our weather recording intervals... More about our weather records


Thessaloniki weather history for previous 24 hours

Time TempWeatherWind HumidityBarometerVisibility
1:50 AM
Sat, Oct 10
63 °FPassing clouds.3 mph94%30.07 "HgN/A
1:20 AM63 °FPassing clouds.3 mph94%30.07 "HgN/A
12:50 AM63 °FPassing clouds.5 mph94%30.07 "HgN/A
11:50 PM
Fri, Oct 9
63 °FPassing clouds.6 mph94%30.09 "HgN/A
11:20 PM64 °FPassing clouds.6 mph88%30.09 "HgN/A
10:50 PM64 °FPassing clouds.5 mph88%30.09 "HgN/A
10:20 PM64 °FPassing clouds.3 mph88%30.07 "HgN/A
9:50 PM64 °FPassing clouds.3 mph88%30.07 "HgN/A
9:20 PM66 °FPassing clouds.3 mph88%30.07 "HgN/A
8:50 PM66 °FPassing clouds.3 mph88%30.04 "HgN/A
8:20 PM64 °FPassing clouds.5 mph83%30.04 "HgN/A
7:50 PM66 °FScattered clouds.3 mph83%30.04 "HgN/A
7:20 PM66 °FScattered clouds.6 mph83%30.04 "HgN/A
6:50 PM68 °FPartly sunny.5 mph83%30.04 "HgN/A
6:20 PM70 °FPartly sunny.8 mph69%30.01 "HgN/A
5:20 PM72 °FScattered clouds.5 mph65%30.01 "HgN/A
4:50 PM72 °FBroken clouds.5 mph65%30.01 "HgN/A
4:20 PM72 °FBroken clouds.6 mph69%30.04 "HgN/A
3:50 PM72 °FBroken clouds.6 mph69%30.04 "HgN/A
3:20 PM72 °FScattered clouds.6 mph69%30.04 "HgN/A
2:50 PM70 °FScattered clouds.6 mph73%30.04 "HgN/A
2:20 PM72 °FScattered clouds.7 mph69%30.04 "HgN/A
1:50 PM72 °FScattered clouds.6 mph69%30.04 "HgN/A
1:20 PM72 °FScattered clouds.6 mph65%30.04 "HgN/A
12:50 PM70 °FScattered clouds.5 mph69%30.04 "HgN/A
12:20 PM70 °FScattered clouds.5 mph73%30.04 "HgN/A
11:50 AM68 °FScattered clouds.5 mph78%30.04 "HgN/A
11:20 AM68 °FScattered clouds.3 mph78%30.04 "HgN/A
10:50 AM68 °FScattered clouds.2 mph78%30.04 "HgN/A
10:20 AM66 °FScattered clouds.2 mph83%30.04 "HgN/A
9:50 AM64 °FPartly sunny.No wind88%30.04 "HgN/A
9:20 AM63 °FScattered clouds.3 mph94%30.04 "HgN/A
8:50 AM63 °FPartly sunny.No wind94%30.01 "HgN/A
8:20 AM63 °FPassing clouds.3 mph94%30.01 "HgN/A
7:50 AM63 °FPartly cloudy.1 mph94%30.01 "HgN/A
7:20 AM63 °FPassing clouds.1 mph94%30.01 "HgN/A
6:50 AM63 °FPassing clouds.2 mph94%30.01 "HgN/A
6:20 AM63 °FPassing clouds.2 mph94%30.01 "HgN/A
5:50 AM63 °FMostly cloudy.2 mph94%30.01 "HgN/A
5:20 AM63 °FMostly cloudy.2 mph88%30.01 "HgN/A
4:20 AM63 °FMostly cloudy.2 mph88%30.01 "HgN/A
3:50 AM63 °FMostly cloudy.2 mph88%30.01 "HgN/A
3:20 AM63 °FMostly cloudy.1 mph94%30.01 "HgN/A
Weather by CustomWeather, © 2015

See weather overviewHow to use our weather pages